Location: Fléchy
(49.6595°N, 2.2321°E)
Time: 13:29:15
(UTC+00:00)

Daily predictions for brighter satellites

Satellite Brightness Start Highest point End
(mag) Time Altitude Azimuth Time Altitude Azimuth Time Altitude Azimuth
ATLAS 2AS CENTAUR R/B 3.0 20:29:44 10° NW 20:36:36 61° NE 20:43:10 10° ESE
Meteor 1-22 Rocket 4.4 20:32:03 10° N 20:37:41 67° ENE 20:43:30 10° SSE
BREEZE-M DEB (TANK) 3.6 20:36:33 10° SW 20:40:02 49° SE 20:51:03 10° ENE
COSMOS 2406 3.8 20:35:56 10° SW 20:41:39 65° WNW 20:47:22 10° NNE
Meteor 2-10 Rocket 3.9 20:36:11 10° N 20:41:43 56° ENE 20:46:59 10° SSE
Cosmos 1674 3.9 20:39:53 10° SSW 20:43:10 40° WNW 20:46:27 10° N
ARGOS Delta rocket 3.8 20:39:40 10° S 20:44:07 76° W 20:48:32 10° NNW
Cosmos 1733 Rocket 3.8 20:44:25 10° N 20:48:34 38° ENE 20:52:42 10° SE
SL-4 R/B 2.3 20:44:53 10° W 20:48:39 66° N 20:52:43 10° ENE
Cosmos 2278 4.1 20:43:44 10° NW 20:49:23 62° WSW 20:54:59 10° SSE
Cosmos 1300 3.0 20:50:20 10° N 20:53:48 46° ENE 20:57:13 10° SSE
S3M 4.1 20:47:39 10° N 20:54:05 85° E 21:00:24 10° S
Ariane Rocket 3.1 20:49:35 10° SSE 20:54:39 69° ENE 20:59:43 10° N
USA 281 4.5 20:49:24 10° ESE 20:54:59 31° NE 21:00:36 10° NNW
Timation 1 Rocket 4.4 20:50:35 10° S 20:56:24 58° ESE 21:02:14 10° NE
SL-27 R/B 3.2 20:54:43 10° SSE 20:56:58 23° ESE 20:59:15 10° NE
Okean-O 4.0 20:53:42 10° SSW 20:57:45 36° W 21:01:50 10° NNW
Cosmos 1441 Rocket 4.2 20:55:14 10° NNW 20:58:40 42° W 21:02:07 10° SSW
Cosmos 1400 Rocket 2.7 20:56:54 10° S 21:00:45 73° E 21:04:36 10° NNE
Cosmos 2219 Rocket 3.0 20:55:48 10° NNW 21:01:12 42° NE 21:06:35 10° ESE
Meteor 1-13 Rocket 4.4 20:55:39 10° SSW 21:01:26 82° WNW 21:07:08 10° N
COSMOS 2428 4.3 20:57:52 10° NNW 21:02:37 26° NE 21:07:20 10° E
BREEZE-M DEB (TANK) 1.9 21:01:54 10° W 21:03:55 52° SSW 21:06:39 10° ESE
Cosmos 1908 4.4 21:00:49 10° NNW 21:04:09 36° W 21:07:29 10° SSW
Cosmos 1356 Rocket 3.9 21:00:14 10° SSE 21:04:13 45° E 21:08:14 10° NNE
Cosmos 2266 Rocket 4.1 20:59:34 10° S 21:05:55 86° E 21:12:22 10° N
USA 245 3.7 21:02:51 10° S 21:06:25 67° W 21:10:57 10° NNW
ATLAS CENTAUR R/B 1.4 21:03:28 10° SSW 21:06:44 39° ESE 21:10:07 10° NE
Cosmos 1850 Rocket 4.1 21:03:43 10° S 21:08:50 58° ESE 21:13:56 10° NNE
Cosmos 1655 Rocket 4.1 21:05:11 10° S 21:11:31 68° E 21:17:53 10° NNE
Cosmos 1869 Rocket 4.4 21:08:24 10° NNW 21:12:43 50° W 21:17:01 10° S
Meteor 1-4 Rocket 3.6 21:13:07 13° SE 21:14:55 22° E 21:17:18 10° NE
Cosmos 2228 Rocket 3.2 21:10:44 10° S 21:15:14 64° E 21:19:46 10° NNE
MOS 1 Rocket 3.7 21:10:51 10° SSE 21:16:15 83° WSW 21:21:33 10° NNW
Okean O Rocket 4.3 21:14:52 10° WSW 21:17:10 14° W 21:19:28 10° WNW
Cosmos 1953 3.6 21:14:43 10° NNE 21:18:01 26° ENE 21:20:51 12° SE
Cosmos 1315 Rocket 4.1 21:17:28 13° SE 21:20:11 25° E 21:23:29 10° NE
Cosmos 968 Rocket 3.7 21:17:19 10° S 21:22:17 52° ESE 21:27:21 10° NNE
SPOT 3 Rocket 3.7 21:18:27 10° S 21:23:36 76° WSW 21:28:48 10° NNW
SeaSat 1 3.1 21:19:15 10° S 21:23:58 47° WSW 21:28:44 10° NW
Cosmos 2360 Rocket 2.3 21:20:44 10° NNW 21:26:27 80° WSW 21:31:30 13° SSE
Cosmos 1741 Rocket 4.0 21:24:02 10° SSW 21:29:18 80° ESE 21:34:38 10° NNE
Cosmos 1242 Rocket 4.1 21:29:31 11° ESE 21:30:11 12° E 21:31:22 10° ENE
BlueWalker 3 3.5 21:31:50 15° SE 21:31:50 15° SE 21:33:58 10° E
Cosmos 1814 Rocket 4.1 21:27:27 10° NNW 21:32:47 79° ENE 21:37:16 15° SSE
MetOp-A 4.1 21:28:25 13° SSE 21:33:02 74° ENE 21:38:17 10° N
Landsat 4 4.2 21:30:20 10° S 21:33:34 47° WSW 21:36:56 10° NNW
COSMOS 2455 4.5 21:35:30 12° SE 21:37:56 15° ESE 21:41:19 10° ENE
SL-16 R/B 3.4 21:33:02 10° NW 21:38:07 35° WSW 21:43:11 10° S
Landsat 5 3.4 21:36:21 10° NNE 21:40:21 66° ESE 21:44:11 12° S
USA 234 3.2 21:34:22 10° ENE 21:40:57 80° SE 21:47:30 10° SW
Cosmos 2333 Rocket 2.5 21:36:38 10° NNW 21:42:21 67° WSW 21:47:09 15° SSE
SL-14 R/B 3.7 21:40:17 10° SSW 21:44:00 58° WNW 21:47:47 10° N
Cosmos 1703 Rocket 4.5 21:43:33 17° SSE 21:46:24 34° E 21:50:25 10° NNE
Cosmos 1862 Rocket 3.6 21:42:51 10° S 21:47:15 84° W 21:51:43 10° N
Cosmos 1346 Rocket 3.5 21:44:07 10° NNW 21:47:52 48° W 21:51:09 13° S
Okean 3 3.4 21:46:07 12° S 21:49:56 85° E 21:54:08 10° N
DNEPR-1 R/B 4.4 21:43:09 10° NW 21:50:02 86° SW 21:54:25 17° SE
Cosmos 1455 2.3 21:49:32 10° N 21:52:58 52° ENE 21:55:03 21° SSE
Cosmos 1408 4.4 21:55:12 11° E 21:55:48 12° E 21:57:00 10° ENE
Cosmos 1833 4.1 21:51:21 10° SSW 21:56:59 82° ESE 22:02:38 10° NNE
EXPRESS MD2 1.8 21:55:18 10° W 21:57:44 84° N 21:59:45 11° E
CZ-4C R/B 3.5 21:58:28 14° ESE 21:59:24 14° ESE 22:02:05 10° ENE
RESURS DK-1 4.3 21:56:29 10° WNW 21:59:31 20° WSW 22:02:33 10° SSW
Cosmos 2237 Rocket 3.7 21:56:36 10° NNW 22:01:30 29° NE 22:06:22 10° ESE
H-2A R/B 3.8 21:58:41 15° ESE 22:01:37 30° ENE 22:05:21 10° N
Cosmos 1932 4.4 21:57:16 10° SSW 22:03:31 67° SE 22:09:46 10° NE
SJ 16-02 1.3 22:00:34 10° SSW 22:04:52 87° WNW 22:09:15 10° NNE
Cosmos 2322 3.9 21:59:39 10° NNW 22:05:21 70° ENE 22:09:35 18° SE
Terra 3.6 22:01:51 10° SSW 22:05:39 24° W 22:09:30 10° NW
CZ-2C R/B 4.1 22:02:35 10° NNE 22:06:51 45° E 22:09:29 21° SSE
Aureole 3 4.0 22:07:01 11° SSW 22:10:50 61° WNW 22:15:50 10° N
Cosmos 2322 Rocket 3.7 22:15:41 10° NW 22:20:18 26° WSW 22:24:47 11° SSW
ARIANE 5 R/B 2.5 22:23:17 24° SSE 22:25:51 87° ENE 22:30:13 10° NNW
NOSS 5 (C) 4.2 22:23:20 10° NW 22:26:32 83° NE 22:27:59 30° SE
ATLAS 2AS CENTAUR R/B 3.5 22:21:03 10° NW 22:27:13 38° WSW 22:31:35 18° S
SL-4 R/B 2.0 22:23:40 10° WNW 22:27:38 83° NNE 22:31:51 10° ESE
Cosmos 2297 Rocket 3.5 22:27:17 18° SE 22:29:31 23° ESE 22:33:52 10° NE
Okean 1-7 3.5 22:30:05 15° SSW 22:33:36 56° WNW 22:37:53 10° N
USA 281 3.3 22:34:22 21° SSE 22:39:00 76° WSW 22:45:38 10° NNW
Cosmos 1745 Rocket 4.1 22:34:59 20° S 22:39:28 74° E 22:45:50 10° NNE
Cosmos 1908 Rocket 4.2 22:36:44 10° NNW 22:40:56 48° W 22:43:32 21° SSW
GP-B 3.2 22:36:44 10° N 22:41:09 74° W 22:43:51 23° SSW
Cosmos 1782 Rocket 3.5 22:39:32 10° N 22:43:53 84° W 22:46:09 28° S
Spot 4 4.0 22:41:21 24° SSE 22:44:10 69° ENE 22:48:57 10° N
ATLAS CENTAUR R/B 3.2 22:41:25 10° W 22:44:29 27° NW 22:47:39 10° NNE
Cosmos 2219 Rocket 3.0 22:39:53 10° NW 22:45:08 39° WSW 22:48:35 20° SSW
Nadezhda 1 Rocket 4.0 22:40:02 10° NNW 22:46:21 80° W 22:50:31 22° S
Okean 2 4.4 22:43:49 13° SW 22:47:02 39° WNW 22:50:51 10° N
COSMOS 2428 2.7 22:41:44 10° NNW 22:47:26 75° WSW 22:50:54 25° SSE
Meteor 1-4 Rocket 4.5 22:45:25 10° WSW 22:47:42 20° WNW 22:50:01 10° NNW
Meteor 2-5 Rocket 4.5 22:46:15 22° SSE 22:49:33 42° E 22:54:59 10° NNE
BREEZE-M DEB (TANK) 2.8 22:47:56 10° WNW 22:51:50 44° N 22:53:53 10° ENE
Cosmos 1953 3.8 22:50:31 10° NNW 22:53:47 27° W 22:55:58 16° SW
Cosmos 2098 Rocket 4.5 22:48:06 10° N 22:54:36 55° ENE 22:58:50 21° SE
Cosmos 1315 Rocket 4.3 22:52:43 11° SW 22:56:12 32° WNW 22:59:50 10° N
H-2A R/B 3.8 22:54:47 10° NE 22:57:45 18° E 22:59:07 16° ESE
PSLV R/B 4.0 22:55:28 10° N 22:59:28 72° WNW 23:01:43 25° SSW
Cosmos 1300 Rocket 3.6 22:56:46 10° NNW 23:01:03 68° W 23:03:09 29° S
Cosmos 1242 Rocket 3.5 23:00:40 20° WSW 23:01:55 29° WNW 23:04:24 10° N
Cosmos 304 Rocket 4.1 23:03:17 29° SSE 23:05:20 47° ESE 23:09:55 10° NNE
Cosmos 158 Rocket 4.3 23:02:16 10° NNW 23:07:30 58° WSW 23:10:13 27° S
Cosmos 2151 Rocket 4.4 23:05:00 10° N 23:09:10 40° ENE 23:11:26 23° SE
BlueWalker 3 1.7 23:06:00 12° SW 23:09:21 68° SSE 23:13:05 10° ENE
Cosmos 2360 Rocket 4.4 23:06:42 10° WNW 23:09:29 14° W 23:12:16 10° SW
Cosmos 405 Rocket 3.2 23:06:55 10° N 23:10:35 49° ENE 23:12:07 30° SE
Okean 2 Rocket 3.9 23:11:27 10° N 23:15:44 43° ENE 23:18:04 24° SE
ALOS 2 2.5 23:14:27 31° S 23:16:30 84° WSW 23:20:56 10° NNW
Cosmos 546 4.5 23:15:48 10° WNW 23:19:38 71° SSW 23:22:00 22° ESE
Cosmos 1674 Rocket 4.4 23:20:04 26° SE 23:21:48 37° E 23:25:48 10° NNE
Cosmos 1378 Rocket 4.2 23:20:47 29° SE 23:22:32 44° E 23:26:42 10° NNE
COSMOS 2455 2.8 23:18:34 20° SSW 23:22:54 78° ESE 23:28:58 10° NE
USA 234 4.0 23:17:28 10° ENE 23:23:49 55° NNW 23:30:08 10° W
NOSS 0 Rocket 4.2 23:20:05 10° NW 23:26:12 58° WSW 23:29:40 26° S
CENTAUR R/B 3.5 23:24:42 22° SE 23:26:50 27° ESE 23:32:17 10° ENE
Cosmos 1408 3.2 23:27:13 27° WSW 23:28:11 36° WNW 23:31:00 10° N
Cosmos 773 Rocket 4.0 23:24:19 10° NNW 23:29:26 68° WSW 23:32:01 29° S
Cosmos 1703 3.3 23:34:51 33° SSW 23:36:17 62° WNW 23:39:57 10° N
H-2A R/B 3.7 23:34:40 23° SW 23:36:29 33° W 23:40:22 10° NNW
Cosmos 2221 Rocket 4.1 23:34:53 29° SSE 23:36:44 48° E 23:41:01 10° NNE
Cosmos 1892 3.1 23:37:30 35° SE 23:38:23 44° E 23:41:46 10° NNE
Cosmos 1709 Rocket 4.3 23:34:37 21° SSW 23:39:02 64° WNW 23:45:22 10° N
SL-16 R/B 3.2 23:33:48 10° NNW 23:39:15 44° NE 23:44:41 10° SE
Cosmos 1174 4.0 23:34:26 10° NW 23:39:34 89° NE 23:41:41 29° SE
Sich 1 Rocket 3.6 23:36:59 10° N 23:41:24 76° E 23:43:22 32° SSE
Cosmos 2242 Rocket 4.4 23:39:46 22° SW 23:42:25 46° WNW 23:46:51 10° N
SJ 16-02 4.1 23:41:39 10° W 23:43:56 14° NW 23:46:14 10° NNW
Cosmos 2237 Rocket 2.3 23:40:23 10° NNW 23:46:00 65° WSW 23:48:59 28° S
Cosmos 1777 Rocket 4.0 23:43:35 28° SSW 23:46:26 79° ESE 23:51:44 10° NNE
CZ-4C R/B 1.9 23:43:30 22° SW 23:46:33 89° SE 23:52:23 10° NE
Cosmos 1503 Rocket 4.0 23:43:28 26° SSW 23:46:35 88° WNW 23:51:56 10° NNE
BREEZE-M DEB (TANK) 2.8 23:38:48 10° W 23:48:24 80° SSW 23:51:28 10° ESE
Cosmos 2227 Rocket 2.5 23:50:16 28° S 23:53:02 52° ESE 23:58:32 10° NE
GEOS 3 Rocket 4.2 23:50:03 10° NE 23:54:52 38° ESE 23:56:49 28° SSE
